Home   Weather   Niterói   Past weeks

Flag for Brazil Past Weather in Niterói, Rio de Janeiro, Brazil — Yesterday and Last 2 Weeks

Now
72 °F

Passing clouds.


Feels Like: 71 °F
Forecast: 68 / 83 °F
Wind: 2 mph from North

Location: Rio De Janeiro Airport

Current Time: Apr 25, 2017 at 1:38:38 am

Latest Report: Apr 25, 2017 at 1:00 am


Visibility: N/A

Pressure: 30.04 "Hg

Humidity: 83%

Dew Point: 66 °F

Location of NiteróiLocation

Past Weather in Niterói — Graph

°F

Niterói Temperature Yesterday

Maximum temperature yesterday: 82 °F (at 12:00 pm)
Minimum temperature yesterday: 68 °F (at 5:00 am)
Average temperature yesterday: 74 °F

High & Low Weather Summary for the Past Weeks

 TemperatureHumidityPressure
High88 °F (Apr 11, 1:00 pm)100% (Apr 13, 4:00 am)30.15 "Hg (Apr 13, 4:00 am)
Low68 °F (Apr 24, 5:00 am)22% (Apr 23, 12:00 pm)29.80 "Hg (Apr 21, 3:00 pm)
Average77 °F78%29.99 "Hg
* Reported Apr 10 12:00 am — Apr 25 12:00 am, Niterói, Weather by CustomWeather, © 2017

Note: Actual official high and low records may vary slightly from our data, if they occured in-between our weather recording intervals... More about our weather records

Advertising

Niterói Weather History for the Previous 24 Hours

Scroll right to see more
 ConditionsComfort  
Time TempWeatherWind HumidityBarometerVisibility
12:00 am
Tue, Apr 25
72 °FPassing clouds.5 mph83%30.04 "HgN/A
11:00 pm
Mon, Apr 24
73 °FPassing clouds.5 mph74%30.07 "HgN/A
10:00 pm73 °FPassing clouds.3 mph74%30.07 "HgN/A
9:00 pm75 °FPassing clouds.5 mph74%30.07 "HgN/A
8:00 pm73 °FPassing clouds.5 mph74%30.04 "HgN/A
7:00 pm75 °FPassing clouds.8 mph69%30.04 "HgN/A
6:00 pm75 °FPassing clouds.8 mph69%30.04 "HgN/A
5:00 pm77 °FPartly sunny.10 mph69%30.01 "HgN/A
2:00 pm81 °FScattered clouds.9 mph66%30.04 "HgN/A
1:00 pm81 °FScattered clouds.6 mph66%30.07 "HgN/A
12:00 pm82 °FPartly sunny.3 mph62%30.09 "HgN/A
11:00 am79 °FPartly sunny.3 mph65%30.12 "HgN/A
10:00 am75 °FPartly sunny.2 mph74%30.15 "HgN/A
9:00 am75 °FPartly sunny.2 mph74%30.15 "HgN/A
8:00 am72 °FPartly sunny.2 mph83%30.12 "HgN/A
7:00 am68 °FPartly sunny.7 mph94%30.12 "HgN/A
6:00 am68 °FPassing clouds.5 mph94%30.09 "HgN/A
5:00 am68 °FPassing clouds.3 mph94%30.07 "HgN/A
1:00 am70 °FPartly cloudy.6 mph88%30.12 "HgN/A
Weather by CustomWeather, © 2017

See weather overviewHow to use our weather pages